| time (UTC) | temp F | wind direction | speed MPH | gust MPH | rain 1hr in | rain 24hr in | rain mn in | humidity % | barometer mb |
| 20260503020046 | 39 | 294 | 1.0 | 3.0 | 0.00 | 0.00 | 0.00 | 57 | 1016.6 |
| 20260503014544 | 40 | 298 | 0.0 | 4.0 | 0.00 | 0.00 | 0.00 | 58 | 1016.6 |
| 20260503013043 | 40 | 301 | 1.0 | 4.0 | 0.00 | 0.00 | 0.00 | 59 | 1016.6 |
| 20260503011549 | 40 | 286 | 2.0 | 5.0 | 0.00 | 0.00 | 0.00 | 59 | 1016.6 |
| 20260503010040 | 41 | 295 | 1.0 | 5.0 | 0.00 | 0.00 | 0.00 | 60 | 1016.6 |
| 20260503004638 | 41 | 301 | 2.0 | 5.0 | 0.00 | 0.00 | 0.00 | 60 | 1016.5 |
| 20260503003040 | 41 | 303 | 1.0 | 5.0 | 0.00 | 0.00 | 0.00 | 60 | 1016.5 |
| 20260503001538 | 41 | 329 | 2.0 | 4.0 | 0.00 | 0.00 | 0.00 | 60 | 1016.4 |
| 20260503000039 | 41 | 340 | 4.0 | 9.0 | 0.00 | 0.00 | 0.00 | 60 | 1016.5 |
| 20260502234548 | 42 | 303 | 4.0 | 10.0 | 0.00 | 0.00 | 0.00 | 60 | 1016.4 |
| 20260502233036 | 42 | 13 | 4.0 | 7.0 | 0.00 | 0.00 | 0.00 | 60 | 1016.4 |
| 20260502231536 | 42 | 355 | 4.0 | 8.0 | 0.00 | 0.00 | 0.00 | 60 | 1016.4 |
| 20260502230035 | 42 | 335 | 3.0 | 10.0 | 0.00 | 0.00 | 0.00 | 60 | 1016.4 |
| 20260502224535 | 42 | 360 | 6.0 | 9.0 | 0.00 | 0.00 | 0.00 | 58 | 1016.4 |
| 20260502223035 | 43 | 321 | 4.0 | 8.0 | 0.00 | 0.00 | 0.00 | 59 | 1016.4 |
| 20260502221534 | 43 | 299 | 2.0 | 10.0 | 0.00 | 0.00 | 0.00 | 60 | 1016.4 |
| 20260502220034 | 43 | 355 | 5.0 | 11.0 | 0.00 | 0.00 | 0.00 | 59 | 1016.5 |
| 20260502214536 | 43 | 14 | 4.0 | 11.0 | 0.00 | 0.00 | 0.00 | 58 | 1016.4 |
| 20260502213043 | 43 | 323 | 6.0 | 10.0 | 0.00 | 0.00 | 0.00 | 58 | 1016.4 |
| 20260502211537 | 44 | 280 | 3.0 | 12.0 | 0.00 | 0.00 | 0.00 | 59 | 1016.4 |
| 20260502210032 | 44 | 23 | 2.0 | 9.0 | 0.00 | 0.00 | 0.00 | 57 | 1016.3 |
| 20260502204532 | 45 | 312 | 4.0 | 9.0 | 0.00 | 0.00 | 0.00 | 56 | 1016.2 |
| 20260502203034 | 44 | 317 | 3.0 | 9.0 | 0.00 | 0.00 | 0.00 | 58 | 1016.2 |
| 20260502201537 | 44 | 14 | 4.0 | 14.0 | 0.00 | 0.00 | 0.00 | 54 | 1016.2 |
| 20260502200031 | 45 | 295 | 4.0 | 9.0 | 0.00 | 0.00 | 0.00 | 54 | 1016.4 |
| 20260502194530 | 45 | 107 | 3.0 | 9.0 | 0.00 | 0.00 | 0.00 | 55 | 1016.6 |
| 20260502193029 | 44 | 84 | 5.0 | 13.0 | 0.00 | 0.00 | 0.00 | 54 | 1016.7 |
| 20260502191534 | 44 | 355 | 3.0 | 8.0 | 0.00 | 0.00 | 0.00 | 54 | 1016.7 |
| 20260502190028 | 44 | 13 | 4.0 | 8.0 | 0.00 | 0.00 | 0.00 | 54 | 1016.9 |
| 20260502184535 | 44 | 355 | 3.0 | 12.0 | 0.00 | 0.00 | 0.00 | 53 | 1017.0 |
| 20260502183029 | 44 | 70 | 5.0 | 13.0 | 0.00 | 0.00 | 0.00 | 54 | 1017.0 |
| 20260502181526 | 45 | 57 | 4.0 | 9.0 | 0.00 | 0.00 | 0.00 | 52 | 1017.0 |
| 20260502163016 | 42 | 5 | 5.0 | 10.0 | 0.00 | 0.00 | 0.00 | 59 | 1017.3 |
| 20260502161514 | 41 | 34 | 3.0 | 10.0 | 0.00 | 0.00 | 0.00 | 59 | 1017.3 |
| 20260502151509 | 40 | 26 | 4.0 | 10.0 | 0.00 | 0.00 | 0.00 | 59 | 1017.2 |
| 20260502123051 | 39 | 42 | 2.0 | 5.0 | 0.00 | 0.00 | 0.00 | 55 | 1016.8 |
| 20260502121550 | 38 | 120 | 0.0 | 3.0 | 0.00 | 0.00 | 0.00 | 53 | 1016.8 |
| 20260502114549 | 38 | 75 | 2.0 | 6.0 | 0.00 | 0.00 | 0.00 | 56 | 1016.9 |
| 20260502113053 | 39 | 66 | 2.0 | 5.0 | 0.00 | 0.00 | 0.00 | 57 | 1016.8 |
| 20260502111546 | 38 | 60 | 1.0 | 5.0 | 0.00 | 0.00 | 0.00 | 57 | 1016.6 |
| 20260502110047 | 38 | 69 | 1.0 | 4.0 | 0.00 | 0.00 | 0.00 | 57 | 1016.4 |
| 20260502104543 | 38 | 355 | 1.0 | 4.0 | 0.00 | 0.00 | 0.00 | 57 | 1016.5 |
| 20260502103039 | 38 | 15 | 0.0 | 2.0 | 0.00 | 0.00 | 0.00 | 58 | 1016.4 |
| 20260502101546 | 38 | 16 | 0.0 | 3.0 | 0.00 | 0.00 | 0.00 | 57 | 1016.3 |
| 20260502071530 | 39 | 79 | 1.0 | 3.0 | 0.00 | 0.00 | 0.00 | 58 | 1015.5 |
| 20260502070047 | 40 | 86 | 0.0 | 0.0 | 0.00 | 0.00 | 0.00 | 58 | 1015.4 |
| 20260502064526 | 40 | 90 | 1.0 | 4.0 | 0.00 | 0.00 | 0.00 | 58 | 1015.6 |
| 20260502063029 | 40 | 49 | 0.0 | 2.0 | 0.00 | 0.00 | 0.00 | 57 | 1015.8 |
| 20260502061523 | 40 | 9 | 0.0 | 5.0 | 0.00 | 0.00 | 0.00 | 57 | 1015.9 |
| 20260502060034 | 41 | 30 | 2.0 | 5.0 | 0.00 | 0.00 | 0.00 | 57 | 1016.0 |
| 20260502054532 | 40 | 52 | 3.0 | 8.0 | 0.00 | 0.00 | 0.00 | 59 | 1016.1 |
| 20260502053020 | 40 | 78 | 3.0 | 7.0 | 0.00 | 0.00 | 0.00 | 58 | 1016.1 |
| 20260502051519 | 41 | 57 | 1.0 | 4.0 | 0.00 | 0.00 | 0.00 | 56 | 1016.0 |
| 20260502050021 | 41 | 78 | 2.0 | 4.0 | 0.00 | 0.00 | 0.00 | 56 | 1016.1 |
| 20260502044517 | 40 | 52 | 2.0 | 6.0 | 0.00 | 0.00 | 0.00 | 54 | 1016.2 |
| 20260502043014 | 40 | 80 | 2.0 | 6.0 | 0.00 | 0.00 | 0.00 | 52 | 1016.2 |
| 20260502041524 | 40 | 52 | 0.0 | 2.0 | 0.00 | 0.00 | 0.00 | 47 | 1016.2 |
| 20260502040012 | 38 | 86 | 0.0 | 3.0 | 0.00 | 0.00 | 0.00 | 24 | 1015.8 |
| 20260502034504 | 37 | 86 | 0.0 | 3.0 | 0.00 | 0.00 | 0.00 | 100 | 1015.8 |
| 20260502033059 | 36 | 321 | 0.0 | 0.0 | 0.00 | 0.00 | 0.00 | 100 | 1015.7 |
| 20260502031555 | 36 | 320 | 0.0 | 2.0 | 0.00 | 0.00 | 0.00 | 100 | 1015.6 |
| 20260502030109 | 36 | 320 | 1.0 | 2.0 | 0.00 | 0.00 | 0.00 | 100 | 1015.6 |
| 20260502024557 | 36 | 320 | 0.0 | 2.0 | 0.00 | 0.00 | 0.00 | 100 | 1015.7 |
| 20260502023058 | 36 | 321 | 1.0 | 3.0 | 0.00 | 0.00 | 0.00 | 100 | 1015.7 |
| 20260502021538 | 37 | 5 | 0.0 | 2.0 | 0.00 | 0.00 | 0.00 | 2 | 1015.5 |